Flag for U.S.A. Weather past 2 weeks in Fresno, California, U.S.A.

Now
78 °F

Passing clouds.


Feels Like: 79 °F
Forecast: 72 / 100 °F
Wind: 9 mph from Northwest

Location: Fresno Air Terminal

Current Time: Aug 30, 2014 at 1:49:43 AM

Latest Report: Aug 30, 2014 at 12:53 AM


Visibility: 10 mi

Pressure: 29.83 "Hg

Humidity: 48%

Dew point: 57 °F

Location of FresnoLocation

Historic Weather in Fresno — Graph

°F

Fresno temperature yesterday

Maximum temperature yesterday: 99 °F (at 2:53 PM)
Minimum temperature yesterday: 71 °F (at 6:53 AM)
Average temperature yesterday: 85 °F

Past Weeks' High & Low Weather Summary

 TemperatureHumidityPressure
High102 °F (Aug 16, 4:53 PM)73% (Aug 20, 6:53 AM)30.03 "Hg (Aug 20, 6:53 AM)
Low65 °F (Aug 26, 5:53 AM)8% (Aug 15, 6:53 PM)29.70 "Hg (Aug 18, 6:53 PM)
Average83 °F36%29.86 "Hg
* Reported Aug 15 12:53 AM — Aug 30 12:53 AM, Fresno, Weather by CustomWeather, © 2014

Note: Actual official high and low records may vary slightly from our data, if they occured in-between our weather recording intervals... More about our weather records

Advertising

Fresno weather history for previous 24 hours

 ConditionsComfort  
Time TempWeatherWind HumidityBarometerVisibility
12:53 AM
Aug 30
78 °FPassing clouds.9 mph48%29.83 "Hg10 mi
11:53 PM
Aug 29
79 °FPassing clouds.8 mph45%29.83 "Hg10 mi
10:53 PM82 °FPassing clouds.8 mph41%29.82 "Hg10 mi
9:53 PM84 °FPassing clouds.9 mph36%29.82 "Hg10 mi
8:53 PM88 °FPassing clouds.9 mph29%29.81 "Hg10 mi
7:53 PM92 °FBroken clouds.10 mph24%29.79 "Hg10 mi
6:53 PM96 °FBroken clouds.13 mph16%29.78 "Hg10 mi
5:53 PM99 °FBroken clouds.10 mph12%29.78 "Hg10 mi
4:53 PM98 °FPartly sunny.6 mph14%29.79 "Hg10 mi
3:53 PM99 °FPartly sunny.3 mph13%29.80 "Hg10 mi
2:53 PM99 °FPartly sunny.6 mph13%29.81 "Hg10 mi
1:53 PM97 °FSunny.9 mph16%29.83 "Hg10 mi
11:53 AM94 °FScattered clouds.6 mph20%29.86 "Hg10 mi
10:53 AM88 °FScattered clouds.6 mph25%29.88 "Hg10 mi
9:53 AM84 °FScattered clouds.3 mph31%29.88 "Hg10 mi
8:53 AM81 °FPassing clouds.No wind32%29.88 "Hg10 mi
7:53 AM74 °FSunny.3 mph46%29.89 "Hg10 mi
6:53 AM71 °FPassing clouds.5 mph51%29.87 "Hg10 mi
5:53 AM72 °FPassing clouds.3 mph49%29.86 "Hg10 mi
4:53 AM72 °FPassing clouds.6 mph49%29.85 "Hg10 mi
3:53 AM74 °FPassing clouds.9 mph46%29.85 "Hg10 mi
2:53 AM77 °FPassing clouds.8 mph40%29.85 "Hg10 mi
1:53 AM80 °FPassing clouds.8 mph36%29.86 "Hg10 mi
Weather by CustomWeather, © 2014

See weather overviewHow to use our weather pages